WX4SKY Weather Reports


Display with metric or nautical units.
time (UTC)temp
F
wind
direction
speed
MPH
gust
MPH
rain 1hr
in
rain 24hr
in
rain mn
in
humidity
%
barometer
mb
20260505010104 63 0 0.0 0.0 0.00 0.00 0.00 61 1015.8
20260505004555 64 0 0.0 0.0 0.00 0.00 0.00 60 1015.7
20260505003057 66 0 0.0 0.0 0.00 0.00 0.00 58 1015.7
20260505001554 68 0 0.0 0.0 0.00 0.00 0.00 55 1015.5
20260505000112 69 0 0.0 0.0 0.00 0.00 0.00 53 1015.5
20260504234554 70 0 0.0 0.0 0.00 0.00 0.00 50 1015.5
20260504233054 71 0 0.0 0.0 0.00 0.00 0.00 48 1015.5
20260504231555 73 0 0.0 1.0 0.00 0.00 0.00 46 1015.5
20260504230056 74 0 0.0 1.0 0.00 0.00 0.00 45 1015.6
20260504224559 76 281 0.0 3.0 0.00 0.00 0.00 40 1015.5
20260504223058 78 0 0.0 2.0 0.00 0.00 0.00 37 1015.6
20260504221556 80 139 0.0 3.0 0.00 0.00 0.00 35 1015.6
20260504220112 81 51 0.0 2.0 0.00 0.00 0.00 37 1015.6
20260504214558 80 21 0.0 3.0 0.00 0.00 0.00 37 1015.5
20260504213100 79 0 0.0 2.0 0.00 0.00 0.00 39 1015.5
20260504211557 78 0 1.0 3.0 0.00 0.00 0.00 35 1015.6
20260504210058 81 89 0.0 5.0 0.00 0.00 0.00 33 1015.6
20260504204556 80 302 1.0 3.0 0.00 0.00 0.00 32 1015.8
20260504203055 80 226 2.0 5.0 0.00 0.00 0.00 36 1015.9
20260504201554 79 115 1.0 4.0 0.00 0.00 0.00 36 1016.1
20260504200056 81 354 1.0 5.0 0.00 0.00 0.00 35 1016.0
20260504194552 80 0 0.0 4.0 0.00 0.00 0.00 38 1016.3
20260504193055 78 160 1.0 4.0 0.00 0.00 0.00 36 1016.5
20260504191557 78 299 2.0 5.0 0.00 0.00 0.00 40 1016.9
20260504190108 77 104 1.0 6.0 0.00 0.00 0.00 36 1017.1
20260504184611 77 101 1.0 7.0 0.00 0.00 0.00 41 1017.3
20260504183059 78 342 1.0 4.0 0.00 0.00 0.00 36 1017.4
20260504181556 76 0 1.0 6.0 0.00 0.00 0.00 42 1017.5
20260504180053 77 53 1.0 4.0 0.00 0.00 0.00 38 1017.7
20260504174552 76 307 0.0 5.0 0.00 0.00 0.00 38 1017.8
20260504173103 76 0 0.0 3.0 0.00 0.00 0.00 35 1018.0
20260504171556 75 118 2.0 4.0 0.00 0.00 0.00 38 1018.1
20260504081603 42 0 0.0 0.0 0.00 0.00 0.00 92 1018.9
20260504044559 46 0 0.0 0.0 0.00 0.00 0.00 88 1019.9
20260504043058 47 0 0.0 0.0 0.00 0.00 0.00 88 1019.9
20260504041555 47 0 0.0 0.0 0.00 0.00 0.00 87 1019.8
20260504040105 48 0 0.0 0.0 0.00 0.00 0.00 87 1019.8
20260504034600 48 0 0.0 0.0 0.00 0.00 0.00 84 1019.8
20260504033126 49 0 0.0 0.0 0.00 0.00 0.00 84 1020.1
20260504031557 50 0 0.0 0.0 0.00 0.00 0.00 83 1020.1
20260504030056 50 0 0.0 0.0 0.00 0.00 0.00 83 1019.7
20260504024556 51 0 0.0 0.0 0.00 0.00 0.00 83 1019.7
20260504023102 51 0 0.0 0.0 0.00 0.00 0.00 80 1019.6
20260504021556 52 0 0.0 0.0 0.00 0.00 0.00 77 1019.4
20260504020100 53 0 0.0 0.0 0.00 0.00 0.00 77 1019.2
20260504014555 54 0 0.0 0.0 0.00 0.00 0.00 75 1019.1
20260504013109 55 0 0.0 0.0 0.00 0.00 0.00 71 1019.0
20260504011556 55 0 0.0 0.0 0.00 0.00 0.00 68 1018.7